Huntington, WV

3:07 PM EDT on September 21, 2017 (GMT -0400)
Tri-State / Ferguson

Weather History for KHTS - June, 2013

Change the Weather History Date:

Tuesday, June 25, 2013

  Actual Average Record
Temperature  
Mean Temperature 80 °F 74 °F  
Max Temperature 91 °F 85 °F 101 °F (1921)
Min Temperature 68 °F 64 °F 49 °F (1979)
Degree Days  
Heating Degree Days 0 0  
Month to date heating degree days 0 9  
Since 1 June heating degree days 0 9  
Since 1 July heating degree days 4527 4509  
Cooling Degree Days 15 9  
Month to date cooling degree days 209 177  
Year to date cooling degree days 379 290  
Since 1 June cooling degree days 209 177  
Growing Degree Days 30 (Base 50)    
Moisture  
Dew Point 69 °F    
Average Humidity 70    
Maximum Humidity 90    
Minimum Humidity 50    
Precipitation  
Precipitation 0.00 in 0.12 in 1.65 in (1898)
Month to date precipitation 3.07 3.31  
Year to date precipitation 16.65 21.39  
Snow  
Snow 0.00 in - - ()
Month to date snowfall 0.0  
Since 1 September snowfall 12.4  
Snow Depth 0.00 in    
Sea Level Pressure  
Sea Level Pressure 30.02 in    
Wind  
Wind Speed 6 mph (SSW)    
Max Wind Speed 12 mph    
Max Gust Speed 16 mph    
Visibility 10 miles    
Events      
T = Trace of Precipitation, MM = Missing Value Source: NWS Daily Summary

Daily Weather History Graph

Daily Weather History Graph

Search for Another Location

Airport or City:

Trip Planner

Search our weather history database for the weather conditions in past years. The results will help you decide how hot, cold, wet, or windy it might be!

Date:

Astronomy

Jun. 25, 2013 Rise Set
Actual Time 6:07 AM EDT 8:57 PM EDT
Civil Twilight 5:36 AM EDT 9:29 PM EDT
Nautical Twilight 4:56 AM EDT 10:09 PM EDT
Astronomical Twilight 4:10 AM EDT 10:54 PM EDT
Moon 10:45 PM EDT (6/25) 8:44 AM EDT (6/25)
Length of Visible Light 15h 53m
Length of Day
14h 50m
Waning Gibbous, 93% of the Moon is Illuminated
Jun 25
Waning Gibbous
Jun 30
Last Quarter
Jul 8
New
Jul 15
First Quarter
Jul 22
Full

Hourly Weather History & Observations

Time (EDT) Temp. Heat Index Dew Point Humidity Pressure Visibility Wind Dir Wind Speed Gust Speed Precip Events Conditions
12:51 AM 75.0 °F - 68.0 °F 79% 30.09 in 10.0 mi Calm Calm - N/A   Clear
1:51 AM 73.9 °F - 66.0 °F 76% 30.07 in 10.0 mi South 3.5 mph - N/A   Clear
2:51 AM 73.0 °F - 68.0 °F 84% 30.04 in 10.0 mi SW 4.6 mph - N/A   Clear
3:51 AM 72.0 °F - 66.9 °F 84% 30.04 in 10.0 mi SSW 4.6 mph - N/A   Clear
4:51 AM 71.1 °F - 66.9 °F 87% 30.05 in 10.0 mi Calm Calm - N/A   Clear
5:51 AM 69.1 °F - 66.9 °F 93% 30.05 in 10.0 mi South 4.6 mph - N/A   Clear
6:51 AM 70.0 °F - 66.9 °F 90% 30.06 in 10.0 mi SSW 4.6 mph - N/A   Clear
7:51 AM 72.0 °F - 66.9 °F 84% 30.08 in 10.0 mi SSW 5.8 mph - N/A   Clear
8:51 AM 75.9 °F - 68.0 °F 76% 30.09 in 10.0 mi WSW 5.8 mph - N/A   Clear
9:51 AM 80.1 °F 82.7 °F 68.0 °F 67% 30.09 in 10.0 mi Variable 5.8 mph - N/A   Clear
10:51 AM 82.9 °F 86.5 °F 69.1 °F 63% 30.08 in 10.0 mi Variable 4.6 mph - N/A   Clear
11:51 AM 84.9 °F 88.2 °F 68.0 °F 57% 30.07 in 10.0 mi SW 8.1 mph - N/A   Clear
12:51 PM 87.1 °F 91.3 °F 69.1 °F 55% 30.06 in 10.0 mi WSW 6.9 mph - N/A   Mostly Cloudy
1:51 PM 88.0 °F 92.1 °F 69.1 °F 53% 30.04 in 10.0 mi WSW 9.2 mph - N/A   Mostly Cloudy
2:51 PM 89.1 °F 92.9 °F 68.0 °F 50% 30.02 in 10.0 mi SW 4.6 mph - N/A   Partly Cloudy
3:51 PM 88.0 °F 91.4 °F 68.0 °F 51% 30.00 in 10.0 mi SW 6.9 mph - N/A   Partly Cloudy
4:51 PM 88.0 °F 92.9 °F 70.0 °F 55% 29.97 in 10.0 mi SW 6.9 mph - N/A   Clear
5:51 PM 86.0 °F 91.5 °F 71.1 °F 61% 29.96 in 10.0 mi SW 8.1 mph - N/A   Clear
6:51 PM 84.9 °F 89.4 °F 70.0 °F 61% 29.94 in 10.0 mi SW 6.9 mph - N/A   Clear
7:51 PM 84.0 °F 89.0 °F 71.1 °F 65% 29.94 in 10.0 mi SSW 6.9 mph - N/A   Clear
8:51 PM 81.0 °F 84.4 °F 70.0 °F 69% 29.95 in 10.0 mi South 5.8 mph - N/A   Clear
9:51 PM 80.1 °F 83.6 °F 71.1 °F 74% 29.96 in 10.0 mi South 4.6 mph - N/A   Clear
10:51 PM 79.0 °F - 72.0 °F 79% 29.96 in 10.0 mi SSW 9.2 mph - N/A   Clear
11:51 PM 78.1 °F - 71.1 °F 79% 29.94 in 10.0 mi SSW 8.1 mph - N/A   Clear